STARLINK-3857 (52494 NORAD) Tracking and Keplerian Element Data

This shows tracking and keplerian element data for the satellite.

Feedback or suggestion? Click here.




ElementValue
Catalog52494
NameSTARLINK-3857
Epoch Orbit1069
Epoch Day193.25001157
Epoch Year2022
RAAN295.4704
Inclination53.2175
Eccentricity0.000309
Argument of Perigee8.7361
Mean Anonmoly109.6155
Mean Motion15.73093901
Decay Rate-0.00983327
L11 52494U 22049AV 22193.25001157 -.00983327 00000+0 -77578-2 0 9998
L22 52494 53.2175 295.4704 0003090 8.7361 109.6155 15.73093901 10698

Live tracking and technical data element details for STARLINK-3857 (NORAD 52494). STARLINK-3857 can be tracked NOW for your location showing map with azimuth and elevation plus other details from your city location.

Track the satellite on the map from your city or location and see movement details for azimuth, elevation, latitude, longitude, range, height, and movement on the map or in text.







IsCatalogInMostPopularTable: catalog: 52494, numindb: 7
Update: records affected: 1



GetName: 52494 STARLINK-3857

Hit Count: updated at: Sun, 14 Aug 2022 00:57:01 GMT